Погода в Тулуне

Хотите узнать прогноз погоды в Тулуне? Тогда Вам сюда: Погода в Тулуне

Поиск расширенной информации на нашем сайте:

Полезная информация:

Новости сайта



02.01.2020
Опубликован Долгосрочный прогноз погоды по городам России и ближнего зарубежья на январь 2020 года.
Карты: Прогноз на январь и февраль 2020 года, Сравнение прогнозируемой аномалии приземной температуры воздуха на январь 2020 года по разным моделям.




Погода в Тулуне - сегодня

Время (UTC), дата Ветер
(°,м/с) 
Видим.   Явления Облачность Т
(°С)
Тd
(°С)
f(%) Тe
(°С)
Pmin
(гПа)
dP
(гПа)
Po
(мм)
O2
(г/м3)
Тmin Tmax R s Состояние
почвы
21 29.11.20 тихо ()   н/о    10/0 средняя, верхняя 
[Ac trans|Cs]
-16.1 -18.9 79 -16  1044.7  731  315           
00 30.11.20 230 (ЮЗ) н/о    10/0 средняя, верхняя 
[Ac trans|Cs]
-15.1 -17.8 80 -15  1044.3  731  313  -16.8      10  равномерный
сухой снег
100% 
03 30.11.20 270 (З) 20000 м    9/0 средняя, верхняя 
[Ac trans|Ci sp]
-11.8 -14.2 82 -12  1043.7  0.2  731  309           
06 30.11.20 280 (З) 20000 м    9/0 средняя, верхняя 
[Ac trans|Ci sp]
-6.8 -14.5 54 -9  1042.3  0.1  731  303           
09 30.11.20 290 (З) 20000 м    9/0 средняя, верхняя 
[Ac trans|Ci sp]
-7.3 -14.3 57 -7  1042.7  0.1  732  304           
12 30.11.20 тихо ()   н/о    10/0 средняя, верхняя 
[Ac trans|Cs]
-8.7 -14.4 63 -9  1043.7  0.6  732  306    -6.4       
15 30.11.20 170 (Ю) н/о    10/0 средняя, верхняя 
[Ac trans|Cs]
-9.6 -15.2 64 -9  1043.1  -0.8  731  307           
18 30.11.20 тихо ()   н/о    10/0 средняя, верхняя 
[Ac trans|Cs]
-10.4 -15.3 67 -10  1042.7  -0.6  731  307           
21 30.11.20 тихо ()   н/о    10/0 средняя, верхняя 
[Ac trans|Cs]
-10.6 -15.6 67 -11  1042  -0.7  731  308           
00 01.12.20 тихо ()   н/о    10/0 средняя, верхняя 
[Ac trans|Cs]
-11.5 -15.2 74 -12  1042.3  0.1  731  309  -12.5      10  равномерный
сухой снег
100% 
03 01.12.20 270 (З) 20000 м  слаб. снег  10/0 средняя 
[As trans]
-9.6 -13.2 75 -11  1041.9  0.1  731  306           
06 01.12.20 270 (З) 20000 м  слаб. снег  10/0 средняя, верхняя 
[Ac trans|Cs]
-8.3 -13.6 66 -12  1041.3  -0.2  731  305           
09 01.12.20 270 (З) 4000 м  слаб. ливневой снег  10/10 600 м кучево-дожд. 
[Cb calv]
-9.4 -12.6 77 -11  1041.9  0.3  731  306           
12 01.12.20 260 (З) н/о  слаб. ливневой снег  10/9 600 м кучево-дожд., средняя 
[Cb calv|Ac As]
-10 -12.4 83 -10  1043.1  731  307    -8.2  0.9     
15 01.12.20 260 (З) н/о  слаб. ливневой снег  10/10 600 м кучево-дожд. 
[Cb calv]
-9.9 -12.4 82 -10  1043.1  731  307           
18 01.12.20 240 (ЮЗ) н/о  слаб. ливневой снег  10/10 600 м кучево-дожд. 
[Cb calv]
-10.2 -12.5 83 -10  1043.7  0.5  732  307           
21 01.12.20 290 (З) н/о  слаб. ливневой снег  10/10 600 м кучево-дожд. 
[Cb calv]
-9.7 -12.9 77 -11  1044.4  0.8  732  307           
00 02.12.20 260 (З) н/о  слаб. ливневой снег  10/8 600 м кучево-дожд., средняя 
[Cb calv|Ac As]
-10.6 -14 76 -10  1045.7  733  309  -10.8    11  равномерный
сухой снег
100% 
03 02.12.20 тихо ()   20000 м  в посл. час ливневой снег  9/4 600 м кучево-дожд., средняя, верхняя 
[Cb calv|Ac trans|Ci sp]
-11.3 -13.5 84 -11  1046.5  0.5  734  309  -12.7         
06 02.12.20 220 (ЮЗ) 20000 м  {ливн. осадки}  3/0 верхняя 
[Ci fib]
-7.3 -13.4 62 -7  1045.2  -0.2  733  305           
09 02.12.20 120 (ЮВ) 20000 м    ясно 
-9.5 -14.2 69 -9  1045.7  -0.1  733  307           
12 02.12.20 тихо ()   н/о    4/0 верхняя 
[Ci sp]
-13.1 -14.8 87 -13  1047  0.4  734  312    -5.8  0.0     
15 02.12.20 тихо ()   н/о    3/0 верхняя 
[Ci sp]
-15.4 -17.9 81 -15  1047.7  734  315           
18 02.12.20 тихо ()   н/о    4/0 верхняя 
[Ci sp]
-17.9 -20.8 78 -18  1047.9  -0.5  733  318           
21 02.12.20 тихо ()   н/о    1/0 верхняя 
[Ci sp]
-21.3 -24.5 75 -21  1047.9  -0.9  733  322           
Время (UTC), дата Ветер
(°,м/с) 
Видим.   Явления Облачность Т
(°С)
Тd
(°С)
f(%) Тe
(°С)
Pmin
(гПа)
dP
(гПа)
Po
(мм)
O2
(г/м3)
Тmin Tmax R s Состояние
почвы

Для получения пояснительной информации подведите курсор к названию столбца.

ПОГОДА в Тулуне - архив

Всё, что Вы хотите узнать о погоде в Тулуне - удобно и подробно!

Выберите нужную дату (начиная с 1 января 2019* года) и нажмите кнопку "Найти".
Будут отображены архивные сводки погоды по пункту Тулун, начиная с указанной даты.


Отображать данные в формате CSV (для использования в таблицах Excel)


Внимание! Наш архив погоды предназначен исключительно для личного некоммерческого использования в познавательных целях. Если Вам необходимы официальные справки о состоянии погоды (для производственных, юридических, коммерческих и т.п. целей), обращайтесь в органы Росгидромета.

*Примечание: данная дата относится к архиву по метеостанциям СССР (Россия, СНГ, Балтия).
Архив по метеостанциям Зарубежной Европы и Азии (кроме Китая) хранится 10 дней, по другим регионам земного шара (Китай, Африка, Америка, Австралия, Океания) - 1 день.

Тулун - район местоположения метеостанции


Название, широта, долгота, высота метеостанции:
Тулун 54.6°ш. 100.6°д. 522 м над ур. моря [Российская Федерация]

Дополнительная информация

В oтличие oт бoльшинства пoгoдных сайтoв мы публикуем пoдрoбную метеoинфoрмацию в детальнoм прoфессиoнальнoм фoрмате.

Характеристики температуры и влажнoсти вoздуха измеряются на высoте 2 м в тени вдали oт зданий и деревьев.
Скoрoсть ветра измеряется на высoте 10 м (на урoвне рoста челoвека скoрoсть ветра ниже в 1.5-2 раза). Если метеoстанция нахoдится в гoрoде или в лесу, тo скoрoсть ветра занижена на 2-4 м/с пo сравнению с oткрытым местoм. Скoрoсть ветра над акватoриями крупных рек и oзёр, а также на вершинах хoлмoв на 2-5 м/с выше, чем в oбычных услoвиях.
Атмoсфернoе давление в разных тoчках местнoсти мoжет значительнo oтличаться oт давления на метеoстанции, в зависимoсти oт услoвий рельефа (при пoдъёме на 10 м давление пoнижается примернo на 1 мм рт.ст.).